| time (UTC) | temp F | wind direction | speed MPH | gust MPH | rain 1hr in | rain 24hr in | rain mn in | humidity % | barometer mb |
| 20260503004150 | 56 | 0.0 | 0.0 | 0.00 | 0.00 | 0.00 | 56 | 941.6 | |
| 20260503002549 | 56 | 0.0 | 0.0 | 0.00 | 0.00 | 0.00 | 56 | 941.6 | |
| 20260503000949 | 56 | 0.0 | 0.0 | 0.00 | 0.00 | 0.00 | 56 | 941.6 | |
| 20260502235349 | 56 | 0.0 | 0.0 | 0.00 | 0.00 | 0.00 | 56 | 941.6 | |
| 20260502233749 | 56 | 0.0 | 0.0 | 0.00 | 0.00 | 0.00 | 56 | 941.6 | |
| 20260502232150 | 56 | 0.0 | 0.0 | 0.00 | 0.00 | 0.00 | 56 | 941.6 | |
| 20260502230550 | 56 | 0.0 | 0.0 | 0.00 | 0.00 | 0.00 | 56 | 941.6 | |
| 20260502224950 | 56 | 0.0 | 0.0 | 0.00 | 0.00 | 0.00 | 56 | 941.6 | |
| 20260502223350 | 56 | 0.0 | 0.0 | 0.00 | 0.00 | 0.00 | 56 | 941.6 | |
| 20260502221750 | 56 | 0.0 | 0.0 | 0.00 | 0.00 | 0.00 | 56 | 941.6 | |
| 20260502220149 | 56 | 0.0 | 0.0 | 0.00 | 0.00 | 0.00 | 56 | 941.6 | |
| 20260502214550 | 56 | 0.0 | 0.0 | 0.00 | 0.00 | 0.00 | 56 | 941.6 | |
| 20260502212950 | 56 | 0.0 | 0.0 | 0.00 | 0.00 | 0.00 | 56 | 941.6 | |
| 20260502211350 | 56 | 0.0 | 0.0 | 0.00 | 0.00 | 0.00 | 56 | 941.6 | |
| 20260502205750 | 56 | 0.0 | 0.0 | 0.00 | 0.00 | 0.00 | 56 | 941.6 | |
| 20260502204149 | 57 | 0.0 | 0.0 | 0.00 | 0.00 | 0.00 | 56 | 941.6 | |
| 20260502202550 | 57 | 0.0 | 0.0 | 0.00 | 0.00 | 0.00 | 56 | 941.5 | |
| 20260502200949 | 57 | 0.0 | 0.0 | 0.00 | 0.00 | 0.00 | 56 | 941.5 | |
| 20260502195349 | 58 | 0.0 | 0.0 | 0.00 | 0.00 | 0.00 | 56 | 941.5 | |
| 20260502193749 | 58 | 0.0 | 0.0 | 0.00 | 0.00 | 0.00 | 56 | 941.4 | |
| 20260502192149 | 58 | 0.0 | 0.0 | 0.00 | 0.00 | 0.00 | 56 | 941.5 | |
| 20260502190549 | 62 | 0.0 | 0.0 | 0.00 | 0.00 | 0.00 | 53 | 940.9 | |
| 20260502184950 | 62 | 0.0 | 0.0 | 0.00 | 0.00 | 0.00 | 53 | 940.9 | |
| 20260502183349 | 62 | 0.0 | 0.0 | 0.00 | 0.00 | 0.00 | 53 | 940.9 | |
| 20260502181749 | 62 | 0.0 | 0.0 | 0.00 | 0.00 | 0.00 | 53 | 940.8 | |
| 20260502180149 | 62 | 0.0 | 0.0 | 0.00 | 0.00 | 0.00 | 52 | 940.8 | |
| 20260502164150 | 64 | 0.0 | 0.0 | 0.00 | 0.00 | 0.00 | 50 | 940.7 | |
| 20260502162550 | 64 | 0.0 | 0.0 | 0.00 | 0.00 | 0.00 | 50 | 940.8 | |
| 20260502160950 | 65 | 0.0 | 0.0 | 0.00 | 0.00 | 0.00 | 49 | 940.9 | |
| 20260502152150 | 66 | 0.0 | 0.0 | 0.00 | 0.00 | 0.00 | 49 | 941.1 | |
| 20260502150550 | 66 | 0.0 | 0.0 | 0.00 | 0.00 | 0.00 | 49 | 941.2 | |
| 20260502122549 | 66 | 0.0 | 0.0 | 0.00 | 0.00 | 0.00 | 49 | 943.2 | |
| 20260502120949 | 66 | 0.0 | 0.0 | 0.00 | 0.00 | 0.00 | 49 | 943.2 | |
| 20260502115349 | 65 | 0.0 | 0.0 | 0.00 | 0.00 | 0.00 | 50 | 943.3 | |
| 20260502113750 | 65 | 0.0 | 0.0 | 0.00 | 0.00 | 0.00 | 50 | 943.4 | |
| 20260502112150 | 65 | 0.0 | 0.0 | 0.00 | 0.00 | 0.00 | 51 | 943.6 | |
| 20260502110550 | 64 | 0.0 | 0.0 | 0.00 | 0.00 | 0.00 | 52 | 944.0 | |
| 20260502104950 | 63 | 0.0 | 0.0 | 0.00 | 0.00 | 0.00 | 52 | 944.2 | |
| 20260502103349 | 63 | 0.0 | 0.0 | 0.00 | 0.00 | 0.00 | 51 | 944.2 | |
| 20260502101750 | 63 | 0.0 | 0.0 | 0.00 | 0.00 | 0.00 | 51 | 944.4 | |
| 20260502100150 | 63 | 0.0 | 0.0 | 0.00 | 0.00 | 0.00 | 51 | 944.4 | |
| 20260502091349 | 61 | 0.0 | 0.0 | 0.00 | 0.00 | 0.00 | 54 | 945.0 | |
| 20260502070550 | 55 | 0.0 | 0.0 | 0.00 | 0.00 | 0.00 | 62 | 945.3 | |
| 20260502064950 | 54 | 0.0 | 0.0 | 0.00 | 0.00 | 0.00 | 63 | 945.3 | |
| 20260502063350 | 53 | 0.0 | 0.0 | 0.00 | 0.00 | 0.00 | 66 | 945.3 | |
| 20260502061749 | 51 | 0.0 | 0.0 | 0.00 | 0.00 | 0.00 | 67 | 945.3 | |
| 20260502060149 | 49 | 0.0 | 0.0 | 0.00 | 0.00 | 0.00 | 67 | 945.3 | |
| 20260502054550 | 49 | 0.0 | 0.0 | 0.00 | 0.00 | 0.00 | 68 | 945.4 | |
| 20260502052949 | 48 | 0.0 | 0.0 | 0.00 | 0.00 | 0.00 | 67 | 945.4 | |
| 20260502051349 | 48 | 0.0 | 0.0 | 0.00 | 0.00 | 0.00 | 68 | 945.3 | |
| 20260502045750 | 48 | 0.0 | 0.0 | 0.00 | 0.00 | 0.00 | 68 | 945.3 | |
| 20260502044150 | 48 | 0.0 | 0.0 | 0.00 | 0.00 | 0.00 | 67 | 945.2 | |
| 20260502042549 | 48 | 0.0 | 0.0 | 0.00 | 0.00 | 0.00 | 67 | 945.2 | |
| 20260502040949 | 48 | 0.0 | 0.0 | 0.00 | 0.00 | 0.00 | 66 | 945.2 | |
| 20260502035349 | 48 | 0.0 | 0.0 | 0.00 | 0.00 | 0.00 | 66 | 945.1 | |
| 20260502033749 | 48 | 0.0 | 0.0 | 0.00 | 0.00 | 0.00 | 67 | 945.0 | |
| 20260502032149 | 48 | 0.0 | 0.0 | 0.00 | 0.00 | 0.00 | 66 | 945.1 | |
| 20260502030549 | 49 | 0.0 | 0.0 | 0.00 | 0.00 | 0.00 | 66 | 945.1 | |
| 20260502024949 | 49 | 0.0 | 0.0 | 0.00 | 0.00 | 0.00 | 66 | 945.0 | |
| 20260502023349 | 49 | 0.0 | 0.0 | 0.00 | 0.00 | 0.00 | 65 | 945.0 | |
| 20260502021750 | 49 | 0.0 | 0.0 | 0.00 | 0.00 | 0.00 | 65 | 945.1 | |
| 20260502020149 | 49 | 0.0 | 0.0 | 0.00 | 0.00 | 0.00 | 65 | 945.0 | |
| 20260502014549 | 49 | 0.0 | 0.0 | 0.00 | 0.00 | 0.00 | 65 | 945.0 | |
| 20260502012949 | 49 | 0.0 | 0.0 | 0.00 | 0.00 | 0.00 | 65 | 945.1 | |
| 20260502011349 | 49 | 0.0 | 0.0 | 0.00 | 0.00 | 0.00 | 65 | 945.2 | |
| 20260502005749 | 50 | 0.0 | 0.0 | 0.00 | 0.00 | 0.00 | 64 | 945.3 |